Le nostre stazioni meteo in Italia

Pubblicità
Il mio iltempo24.it
Grazzanise, Italia (16253): Temperatura & dewpoint: 19.06.2019 20:00:00 - 25.06.2019 20:00:00 (CEST)Grazzanise, Italia (16253): velocità del vento: 19.06.2019 20:00:00 - 25.06.2019 20:00:00 (CEST)Grazzanise, Italia (16253): direzione del vento: 19.06.2019 20:00:00 - 25.06.2019 20:00:00 (CEST)Grazzanise, Italia (16253): reduced air pressure: 19.06.2019 20:00:00 - 25.06.2019 20:00:00 (CEST)Grazzanise, Italia (16253): visibility: 19.06.2019 20:00:00 - 25.06.2019 20:00:00 (CEST)Grazzanise, Italia (16253): ore di luce: 19.06.2019 20:00:00 - 25.06.2019 20:00:00 (CEST)
Data & Tempo tt [°C] td [°C] ff [km/h] ff [kn] dd ppp [hPa] vv [km] sd [min]
25.06.2019 20:00:00 31,6 23,7 5 3 O 1018,1 20 60
25.06.2019 19:00:00 33,0 23,0 9 5 O - 10 -
25.06.2019 18:00:00 34,0 22,0 13 7 O - 10 -
25.06.2019 17:00:00 33,6 20,7 13 7 O 1018,0 20 60
25.06.2019 16:00:00 34,0 20,0 18 10 O - 10 -
25.06.2019 15:00:00 34,0 19,0 18 10 O - 10 -
25.06.2019 14:00:00 33,8 19,9 18 10 O 1018,0 20 60
25.06.2019 13:00:00 34,0 19,0 16 9 O - 10 -
25.06.2019 12:00:00 33,0 18,0 5 3 NE - 10 -
25.06.2019 11:00:00 32,4 18,6 9 5 ENE 1017,9 20 60
25.06.2019 10:00:00 31,0 19,0 4 2 ENE - 10 -
25.06.2019 09:00:00 30,0 20,0 5 3 ENE - 10 -
25.06.2019 08:00:00 26,6 20,0 4 2 NNE 1017,3 20 36
25.06.2019 07:00:00 24,0 20,0 0 0 N - 10 -
25.06.2019 06:00:00 24,0 19,0 9 5 ENE - 10 -
25.06.2019 05:00:00 23,0 18,8 8 4 NE 1017,2 10 -
25.06.2019 04:00:00 23,0 21,0 4 2 E - 10 -
25.06.2019 03:00:00 24,0 21,0 8 4 NNE - 10 -
25.06.2019 02:00:00 24,4 21,5 8 4 NNE 1017,0 80 -
25.06.2019 01:00:00 26,0 25,0 5 3 N - 10 -
25.06.2019 00:00:00 27,0 26,0 5 3 NNE - 10 -
24.06.2019 23:00:00 26,6 25,7 5 3 NNE 1017,2 10 -
24.06.2019 22:00:00 28,0 27,0 5 3 ESE - 10 -
24.06.2019 21:00:00 28,0 26,0 8 4 OSO - 10 -
24.06.2019 20:00:00 30,0 25,5 9 5 OSO 1016,0 15 6
24.06.2019 19:00:00 31,0 24,0 16 9 OSO - 10 -
24.06.2019 18:00:00 33,0 24,0 21 11 O - 10 -
24.06.2019 17:00:00 33,0 23,1 18 10 O 1015,2 12 60
24.06.2019 16:00:00 34,0 24,0 18 10 O - 10 -
24.06.2019 15:00:00 33,0 24,0 16 9 O - 10 -
24.06.2019 14:00:00 33,2 24,4 13 7 O 1015,8 12 60
24.06.2019 13:00:00 33,0 25,0 11 6 O - 10 -
24.06.2019 12:00:00 33,0 21,0 4 2 S - 10 -
24.06.2019 11:00:00 31,4 21,6 5 3 S 1015,9 10 60
24.06.2019 10:00:00 30,0 21,0 4 2 E - 10 -
24.06.2019 09:00:00 28,0 22,0 5 3 E - 10 -
24.06.2019 08:00:00 25,2 22,9 8 4 ENE 1016,1 10 0
24.06.2019 07:00:00 22,0 21,0 4 2 N - 5 -
24.06.2019 06:00:00 21,0 20,0 5 3 O - 5 -
24.06.2019 05:00:00 23,0 21,3 0 0 N 1015,4 15 -
24.06.2019 04:00:00 23,0 22,0 9 5 NNE - 10 -
24.06.2019 03:00:00 23,0 22,0 4 2 N - 10 -
24.06.2019 02:00:00 23,0 22,2 4 2 NNO 1015,4 15 -
24.06.2019 01:00:00 23,0 23,0 4 2 N - 10 -
24.06.2019 00:00:00 24,0 23,0 4 2 ENE - 10 -
23.06.2019 23:00:00 25,0 24,3 4 2 SE 1015,2 15 -
23.06.2019 22:00:00 26,0 25,0 4 2 S - 10 -
23.06.2019 21:00:00 26,0 26,0 5 3 OSO - 10 -
23.06.2019 20:00:00 28,0 26,2 15 8 OSO 1014,0 15 60
23.06.2019 19:00:00 29,0 26,0 15 8 O - 10 -
23.06.2019 18:00:00 30,0 25,0 16 9 O - 10 -
23.06.2019 17:00:00 30,0 24,9 18 10 OSO 1013,3 15 60
23.06.2019 16:00:00 30,0 25,0 21 11 SO - 10 -
23.06.2019 15:00:00 32,0 25,0 18 10 OSO - 10 -
23.06.2019 14:00:00 32,0 23,8 11 6 SO 1013,4 10 60
23.06.2019 13:00:00 31,0 23,0 11 6 OSO - 10 -
23.06.2019 12:00:00 31,0 24,0 15 8 SSO - 10 -
23.06.2019 11:00:00 26,4 23,5 9 5 SSO 1013,4 15 48
23.06.2019 10:00:00 27,0 24,0 4 2 OSO - 10 -
23.06.2019 09:00:00 26,0 23,0 4 2 NE - 10 -
23.06.2019 08:00:00 24,0 22,3 5 3 NE 1013,1 10 60
23.06.2019 07:00:00 21,0 20,0 5 3 NNO - 10 -
23.06.2019 06:00:00 22,0 21,0 2 1 N - 10 -
23.06.2019 05:00:00 22,0 21,2 0 0 N 1012,8 10 0
23.06.2019 04:00:00 23,0 22,0 4 2 NE - 10 -
23.06.2019 03:00:00 23,0 22,0 4 2 ENE - 10 -
23.06.2019 02:00:00 23,4 22,0 4 2 NE 1012,8 10 0
23.06.2019 01:00:00 24,0 22,0 2 1 E - 10 -
23.06.2019 00:00:00 24,0 22,0 4 2 E - 10 -
22.06.2019 23:00:00 24,0 20,3 4 2 S 1012,8 10 0
22.06.2019 22:00:00 25,0 19,0 4 2 OSO - 10 -
22.06.2019 21:00:00 28,0 20,0 5 3 SSO - 10 -
22.06.2019 20:00:00 30,0 21,4 8 4 SSO 1012,8 10 0
22.06.2019 19:00:00 31,0 23,0 5 3 OSO - 10 -
22.06.2019 18:00:00 32,0 20,0 4 2 S - 10 -
22.06.2019 17:00:00 32,0 19,6 4 2 ESE 1013,9 20 60
22.06.2019 16:00:00 32,0 19,0 15 8 OSO - 10 -
22.06.2019 15:00:00 32,0 20,0 28 15 SO - 10 -
22.06.2019 14:00:00 30,0 22,4 34 18 SSO 1014,0 15 0
22.06.2019 13:00:00 33,0 16,0 9 5 E - 10 -
22.06.2019 12:00:00 30,0 17,0 18 10 E - 10 -
22.06.2019 11:00:00 29,8 17,0 18 10 ESE 1013,8 15 0
22.06.2019 10:00:00 26,0 17,0 37 20 N - 10 -
22.06.2019 09:00:00 25,0 19,0 15 8 N - 10 -
22.06.2019 08:00:00 21,4 19,7 4 2 SE 1018,1 12 0
22.06.2019 07:00:00 21,0 19,0 4 2 NNO - 10 -
22.06.2019 06:00:00 20,0 19,0 9 5 NO - 10 -
22.06.2019 05:00:00 20,8 19,1 0 0 N 1014,4 15 0
22.06.2019 04:00:00 21,0 20,0 5 3 NE - 10 -
22.06.2019 03:00:00 21,0 20,0 0 0 N - 10 -
22.06.2019 02:00:00 21,6 20,9 4 2 NO 1015,3 11 0
22.06.2019 01:00:00 22,0 22,0 4 2 SO - 10 -
22.06.2019 00:00:00 23,0 22,0 4 2 NO - 10 -
21.06.2019 23:00:00 23,8 22,6 4 2 ESE 1014,3 11 0
21.06.2019 22:00:00 25,0 24,0 0 0 N - 10 -
21.06.2019 21:00:00 27,0 24,0 4 2 O - 10 -
21.06.2019 20:00:00 27,2 21,9 4 2 O 1014,6 15 54
21.06.2019 19:00:00 31,0 23,0 13 7 O - 10 -
21.06.2019 18:00:00 31,0 23,0 9 5 OSO - 10 -
21.06.2019 17:00:00 30,2 24,1 8 4 SO 1014,7 15 60
21.06.2019 16:00:00 30,0 25,0 9 5 OSO - 10 -
21.06.2019 15:00:00 31,0 24,0 16 9 OSO - 10 -
21.06.2019 14:00:00 30,0 23,9 15 8 OSO 1015,2 15 60
21.06.2019 13:00:00 31,0 22,0 18 10 OSO - 10 -
21.06.2019 12:00:00 32,0 20,0 9 5 S - 10 -
21.06.2019 11:00:00 30,0 21,4 5 3 ENE 1015,2 15 60
21.06.2019 10:00:00 28,0 22,0 5 3 E - 10 -
21.06.2019 09:00:00 26,0 22,0 5 3 E - 10 -
21.06.2019 08:00:00 23,0 20,9 5 3 E 1016,0 12 0
21.06.2019 07:00:00 21,0 19,0 4 2 N - 10 -
21.06.2019 06:00:00 20,0 19,0 5 3 NNO - 10 -
21.06.2019 05:00:00 21,0 19,3 9 5 NNE 1014,8 12 -
21.06.2019 04:00:00 21,0 21,0 4 2 N - 10 -
21.06.2019 03:00:00 22,0 21,0 5 3 NNE - 10 -
21.06.2019 02:00:00 22,4 21,5 4 2 ENE 1015,1 12 -
21.06.2019 01:00:00 23,0 22,0 4 2 E - 10 -
21.06.2019 00:00:00 23,0 23,0 4 2 E - 10 -
20.06.2019 23:00:00 24,0 23,2 4 2 SSE 1014,6 12 -
20.06.2019 22:00:00 25,0 24,0 4 2 SSO - 10 -
20.06.2019 21:00:00 25,0 24,0 9 5 OSO - 10 -
20.06.2019 20:00:00 27,8 24,2 16 9 O 1013,5 15 0
20.06.2019 19:00:00 29,0 24,0 22 12 OSO - 10 -
20.06.2019 18:00:00 29,0 24,0 18 10 OSO - 10 -
20.06.2019 17:00:00 30,0 22,4 21 11 OSO 1013,2 20 60
20.06.2019 16:00:00 31,0 23,0 15 8 OSO - 10 -
20.06.2019 15:00:00 31,0 22,0 13 7 SO - 10 -
20.06.2019 14:00:00 29,6 22,6 16 9 SO 1014,2 15 60
20.06.2019 13:00:00 29,0 23,0 18 10 SO - 10 -
20.06.2019 12:00:00 29,0 24,0 15 8 SO - 10 -
20.06.2019 11:00:00 28,8 23,5 9 5 OSO 1014,1 11 60
20.06.2019 10:00:00 28,0 23,0 4 2 OSO - 10 -
20.06.2019 09:00:00 26,0 23,0 4 2 ENE - 10 -
20.06.2019 08:00:00 23,6 21,5 8 4 NE 1014,1 11 18
20.06.2019 07:00:00 22,0 20,0 5 3 NE - 6 -
20.06.2019 06:00:00 21,0 20,0 4 2 NNE - 7 -
20.06.2019 05:00:00 21,0 20,0 4 2 NNE 1014,1 12 -
20.06.2019 04:00:00 - - - - - - - -
20.06.2019 03:00:00 20,0 19,0 4 2 N - 10 -
20.06.2019 02:00:00 20,8 19,8 4 2 ONO 1014,1 20 -
20.06.2019 01:00:00 22,0 21,0 4 2 E - 10 -
20.06.2019 00:00:00 23,0 22,0 4 2 SSE - 10 -
19.06.2019 23:00:00 23,0 22,2 4 2 S 1013,8 20 -
19.06.2019 22:00:00 24,0 23,0 8 4 S - 10 -
19.06.2019 21:00:00 24,0 23,0 5 3 OSO - 10 -
19.06.2019 20:00:00 26,2 24,1 13 7 O 1013,3 15 60

tt = Temperatura
td = dewpoint
ff = velocità del vento
dd = direzione del vento
ppp = reduced air pressure
vv = visibility
sd = ore di luce

Stazioni seguenti

WeatherPro
AMSI
MeteoEarth